Location: Bella Coola
(52.3721°N, 126.7539°W)
Time: 16:30:30
(UTC-07:00)

ISS - Pass Details

Date: 28 May 2019
Orbit: 408 x 419 km, 51.6° (Epoch: 21 June)

Event Time Altitude Azimuth Distance (km) Brightness Sun altitude
Rises 22:46:36 0° 280° (W) 2,357 0.8 -8.5°
Reaches altitude 10° 22:48:43 10° 275° (W) 1,495 -0.3 -8.7°
Maximum altitude 22:52:00 53° 198° (SSW) 521 -3.5 -8.9°
Enters shadow 22:55:04 12° 122° (ESE) 1,408 -1.7 -9.2°
